HISTORICAL SENSOR DATA

Sensor Data Report

DB LIVE
CURRENT TIME--:--:--
DEVICE NETWORK Gateway Status
13 ESP · realtime ~1s · history 60s
Weather WS-MOD-01
ONLINE
Actuator ACT-MOD-01
OFFLINE
Mainboard L3 MB-L3-01
ONLINE
Mainboard L5 MB-L5-01
ONLINE
Remote AC AC-REMOTE-01
ONLINE
PZEM L3-01 PWR-L3-01
OFFLINE
PZEM L3-02 PWR-L3-02
OFFLINE
PZEM L3-03 PWR-L3-03
OFFLINE
PZEM L3-04 PWR-L3-04
OFFLINE
PZEM L5-01 PWR-L5-01
ONLINE
PZEM L5-02 PWR-L5-02
ONLINE
PZEM L5-03 PWR-L5-03
OFFLINE
PZEM L5-04 PWR-L5-04
OFFLINE
REPORT FILTER

Periode & Sensor

DATABASE HISTORY
RESET
QUICK RANGE Hari ini 7 hari 30 hari
PERIODE08 Aug 2026sampai 06 Sep 2026
TOTAL DATA53,165sensor readings
MINIMUM-0.50sesuai filter
AVERAGE97.39sesuai filter
MAXIMUM32,564.20sesuai filter
REPORT RESULT

Data Sensor

08/08/2026 — 06/09/2026 EXPORT CSV
NOTANGGALWAKTUDEVICECHANNELSENSORVALUEUNIT
2601 06/09/2026 19:23:00 MB-L3-01Mainboard Lantai 3 L3-AI-03 Analog Input 3 3.12 V
2602 06/09/2026 19:23:00 MB-L3-01Mainboard Lantai 3 L3-AI-05 Analog Input 5 3.12 V
2603 06/09/2026 19:23:00 MB-L3-01Mainboard Lantai 3 L3-LUX-02 Illuminance / LUX 2 615.20 lux
2604 06/09/2026 19:23:00 MB-L3-01Mainboard Lantai 3 L3-SHT-03-RH SHT20 3 Humidity 44.10 %RH
2605 06/09/2026 19:22:00 MB-L3-01Mainboard Lantai 3 L3-SHT-03-T SHT20 3 Temperature 29.60 °C
2606 06/09/2026 19:22:00 MB-L3-01Mainboard Lantai 3 L3-SHT-02-T SHT20 2 Temperature 29.50 °C
2607 06/09/2026 19:22:00 MB-L3-01Mainboard Lantai 3 L3-AI-02 Analog Input 2 3.12 V
2608 06/09/2026 19:22:00 MB-L3-01Mainboard Lantai 3 L3-AI-04 Analog Input 4 3.12 V
2609 06/09/2026 19:22:00 MB-L3-01Mainboard Lantai 3 L3-AI-06 Analog Input 6 3.12 V
2610 06/09/2026 19:22:00 MB-L3-01Mainboard Lantai 3 L3-LUX-04 Illuminance / LUX 4 585.10 lux
2611 06/09/2026 19:22:00 MB-L3-01Mainboard Lantai 3 L3-LUX-01 Illuminance / LUX 1 503.00 lux
2612 06/09/2026 19:22:00 MB-L3-01Mainboard Lantai 3 L3-LUX-06 Illuminance / LUX 6 540.90 lux
2613 06/09/2026 19:22:00 MB-L3-01Mainboard Lantai 3 L3-RAD-02 Radiation 2 1.00 W/m²
2614 06/09/2026 19:22:00 MB-L3-01Mainboard Lantai 3 L3-SHT-02-RH SHT20 2 Humidity 43.90 %RH
2615 06/09/2026 19:22:00 MB-L3-01Mainboard Lantai 3 L3-LUX-05 Illuminance / LUX 5 390.00 lux
2616 06/09/2026 19:22:00 MB-L3-01Mainboard Lantai 3 L3-LUX-03 Illuminance / LUX 3 733.00 lux
2617 06/09/2026 19:22:00 MB-L3-01Mainboard Lantai 3 L3-AI-01 Analog Input 1 3.12 V
2618 06/09/2026 19:22:00 MB-L3-01Mainboard Lantai 3 L3-AI-03 Analog Input 3 3.12 V
2619 06/09/2026 19:22:00 MB-L3-01Mainboard Lantai 3 L3-AI-05 Analog Input 5 3.12 V
2620 06/09/2026 19:22:00 MB-L3-01Mainboard Lantai 3 L3-LUX-02 Illuminance / LUX 2 614.40 lux
2621 06/09/2026 19:22:00 MB-L3-01Mainboard Lantai 3 L3-SHT-03-RH SHT20 3 Humidity 44.00 %RH
2622 06/09/2026 19:22:00 MB-L3-01Mainboard Lantai 3 L3-SHT-01-RH SHT20 1 Humidity 44.60 %RH
2623 06/09/2026 19:22:00 MB-L3-01Mainboard Lantai 3 L3-RAD-01 Radiation 1 1.00 W/m²
2624 06/09/2026 19:22:00 MB-L3-01Mainboard Lantai 3 L3-SHT-01-T SHT20 1 Temperature 29.20 °C
2625 06/09/2026 19:21:00 MB-L3-01Mainboard Lantai 3 L3-LUX-04 Illuminance / LUX 4 585.10 lux
2626 06/09/2026 19:21:00 MB-L3-01Mainboard Lantai 3 L3-LUX-01 Illuminance / LUX 1 503.20 lux
2627 06/09/2026 19:21:00 MB-L3-01Mainboard Lantai 3 L3-LUX-06 Illuminance / LUX 6 540.60 lux
2628 06/09/2026 19:21:00 MB-L3-01Mainboard Lantai 3 L3-RAD-02 Radiation 2 1.00 W/m²
2629 06/09/2026 19:21:00 MB-L3-01Mainboard Lantai 3 L3-SHT-02-RH SHT20 2 Humidity 44.00 %RH
2630 06/09/2026 19:21:00 MB-L3-01Mainboard Lantai 3 L3-LUX-05 Illuminance / LUX 5 389.90 lux
2631 06/09/2026 19:21:00 MB-L3-01Mainboard Lantai 3 L3-LUX-03 Illuminance / LUX 3 733.50 lux
2632 06/09/2026 19:21:00 MB-L3-01Mainboard Lantai 3 L3-AI-01 Analog Input 1 3.12 V
2633 06/09/2026 19:21:00 MB-L3-01Mainboard Lantai 3 L3-AI-03 Analog Input 3 3.12 V
2634 06/09/2026 19:21:00 MB-L3-01Mainboard Lantai 3 L3-AI-05 Analog Input 5 3.12 V
2635 06/09/2026 19:21:00 MB-L3-01Mainboard Lantai 3 L3-LUX-02 Illuminance / LUX 2 615.90 lux
2636 06/09/2026 19:21:00 MB-L3-01Mainboard Lantai 3 L3-SHT-03-RH SHT20 3 Humidity 44.10 %RH
2637 06/09/2026 19:21:00 MB-L3-01Mainboard Lantai 3 L3-SHT-01-RH SHT20 1 Humidity 44.60 %RH
2638 06/09/2026 19:21:00 MB-L3-01Mainboard Lantai 3 L3-RAD-01 Radiation 1 1.00 W/m²
2639 06/09/2026 19:21:00 MB-L3-01Mainboard Lantai 3 L3-SHT-01-T SHT20 1 Temperature 29.20 °C
2640 06/09/2026 19:21:00 MB-L3-01Mainboard Lantai 3 L3-SHT-03-T SHT20 3 Temperature 29.60 °C
2641 06/09/2026 19:21:00 MB-L3-01Mainboard Lantai 3 L3-SHT-02-T SHT20 2 Temperature 29.50 °C
2642 06/09/2026 19:21:00 MB-L3-01Mainboard Lantai 3 L3-AI-02 Analog Input 2 3.12 V
2643 06/09/2026 19:21:00 MB-L3-01Mainboard Lantai 3 L3-AI-04 Analog Input 4 3.12 V
2644 06/09/2026 19:21:00 MB-L3-01Mainboard Lantai 3 L3-AI-06 Analog Input 6 3.12 V
2645 06/09/2026 19:20:00 MB-L3-01Mainboard Lantai 3 L3-RAD-02 Radiation 2 1.00 W/m²
2646 06/09/2026 19:20:00 MB-L3-01Mainboard Lantai 3 L3-SHT-02-RH SHT20 2 Humidity 43.90 %RH
2647 06/09/2026 19:20:00 MB-L3-01Mainboard Lantai 3 L3-LUX-05 Illuminance / LUX 5 390.00 lux
2648 06/09/2026 19:20:00 MB-L3-01Mainboard Lantai 3 L3-LUX-03 Illuminance / LUX 3 733.80 lux
2649 06/09/2026 19:20:00 MB-L3-01Mainboard Lantai 3 L3-AI-01 Analog Input 1 3.12 V
2650 06/09/2026 19:20:00 MB-L3-01Mainboard Lantai 3 L3-AI-03 Analog Input 3 3.12 V
2651 06/09/2026 19:20:00 MB-L3-01Mainboard Lantai 3 L3-AI-05 Analog Input 5 3.12 V
2652 06/09/2026 19:20:00 MB-L3-01Mainboard Lantai 3 L3-LUX-02 Illuminance / LUX 2 615.70 lux
2653 06/09/2026 19:20:00 MB-L3-01Mainboard Lantai 3 L3-SHT-03-RH SHT20 3 Humidity 44.20 %RH
2654 06/09/2026 19:20:00 MB-L3-01Mainboard Lantai 3 L3-SHT-01-RH SHT20 1 Humidity 44.70 %RH
2655 06/09/2026 19:20:00 MB-L3-01Mainboard Lantai 3 L3-RAD-01 Radiation 1 1.00 W/m²
2656 06/09/2026 19:20:00 MB-L3-01Mainboard Lantai 3 L3-SHT-01-T SHT20 1 Temperature 29.20 °C
2657 06/09/2026 19:20:00 MB-L3-01Mainboard Lantai 3 L3-SHT-03-T SHT20 3 Temperature 29.50 °C
2658 06/09/2026 19:20:00 MB-L3-01Mainboard Lantai 3 L3-SHT-02-T SHT20 2 Temperature 29.50 °C
2659 06/09/2026 19:20:00 MB-L3-01Mainboard Lantai 3 L3-AI-02 Analog Input 2 3.12 V
2660 06/09/2026 19:20:00 MB-L3-01Mainboard Lantai 3 L3-AI-04 Analog Input 4 3.12 V
2661 06/09/2026 19:20:00 MB-L3-01Mainboard Lantai 3 L3-AI-06 Analog Input 6 3.12 V
2662 06/09/2026 19:20:00 MB-L3-01Mainboard Lantai 3 L3-LUX-04 Illuminance / LUX 4 584.90 lux
2663 06/09/2026 19:20:00 MB-L3-01Mainboard Lantai 3 L3-LUX-01 Illuminance / LUX 1 503.30 lux
2664 06/09/2026 19:20:00 MB-L3-01Mainboard Lantai 3 L3-LUX-06 Illuminance / LUX 6 539.70 lux
2665 06/09/2026 19:19:00 MB-L3-01Mainboard Lantai 3 L3-AI-01 Analog Input 1 3.12 V
2666 06/09/2026 19:19:00 MB-L3-01Mainboard Lantai 3 L3-AI-03 Analog Input 3 3.12 V
2667 06/09/2026 19:19:00 MB-L3-01Mainboard Lantai 3 L3-AI-05 Analog Input 5 3.12 V
2668 06/09/2026 19:19:00 MB-L3-01Mainboard Lantai 3 L3-LUX-02 Illuminance / LUX 2 616.20 lux
2669 06/09/2026 19:19:00 MB-L3-01Mainboard Lantai 3 L3-SHT-03-RH SHT20 3 Humidity 44.00 %RH
2670 06/09/2026 19:19:00 MB-L3-01Mainboard Lantai 3 L3-SHT-01-RH SHT20 1 Humidity 44.80 %RH
2671 06/09/2026 19:19:00 MB-L3-01Mainboard Lantai 3 L3-RAD-01 Radiation 1 1.00 W/m²
2672 06/09/2026 19:19:00 MB-L3-01Mainboard Lantai 3 L3-SHT-01-T SHT20 1 Temperature 29.10 °C
2673 06/09/2026 19:19:00 MB-L3-01Mainboard Lantai 3 L3-SHT-03-T SHT20 3 Temperature 29.50 °C
2674 06/09/2026 19:19:00 MB-L3-01Mainboard Lantai 3 L3-SHT-02-T SHT20 2 Temperature 29.50 °C
2675 06/09/2026 19:19:00 MB-L3-01Mainboard Lantai 3 L3-AI-02 Analog Input 2 3.12 V
2676 06/09/2026 19:19:00 MB-L3-01Mainboard Lantai 3 L3-AI-04 Analog Input 4 3.12 V
2677 06/09/2026 19:19:00 MB-L3-01Mainboard Lantai 3 L3-AI-06 Analog Input 6 3.12 V
2678 06/09/2026 19:19:00 MB-L3-01Mainboard Lantai 3 L3-LUX-04 Illuminance / LUX 4 585.10 lux
2679 06/09/2026 19:19:00 MB-L3-01Mainboard Lantai 3 L3-LUX-01 Illuminance / LUX 1 503.10 lux
2680 06/09/2026 19:19:00 MB-L3-01Mainboard Lantai 3 L3-LUX-06 Illuminance / LUX 6 540.70 lux
2681 06/09/2026 19:19:00 MB-L3-01Mainboard Lantai 3 L3-RAD-02 Radiation 2 1.00 W/m²
2682 06/09/2026 19:19:00 MB-L3-01Mainboard Lantai 3 L3-SHT-02-RH SHT20 2 Humidity 43.90 %RH
2683 06/09/2026 19:19:00 MB-L3-01Mainboard Lantai 3 L3-LUX-05 Illuminance / LUX 5 390.10 lux
2684 06/09/2026 19:19:00 MB-L3-01Mainboard Lantai 3 L3-LUX-03 Illuminance / LUX 3 733.80 lux
2685 06/09/2026 19:18:00 MB-L3-01Mainboard Lantai 3 L3-RAD-01 Radiation 1 1.00 W/m²
2686 06/09/2026 19:18:00 MB-L3-01Mainboard Lantai 3 L3-SHT-01-T SHT20 1 Temperature 29.10 °C
2687 06/09/2026 19:18:00 MB-L3-01Mainboard Lantai 3 L3-SHT-03-T SHT20 3 Temperature 29.60 °C
2688 06/09/2026 19:18:00 MB-L3-01Mainboard Lantai 3 L3-SHT-02-T SHT20 2 Temperature 29.50 °C
2689 06/09/2026 19:18:00 MB-L3-01Mainboard Lantai 3 L3-AI-02 Analog Input 2 3.12 V
2690 06/09/2026 19:18:00 MB-L3-01Mainboard Lantai 3 L3-AI-04 Analog Input 4 3.12 V
2691 06/09/2026 19:18:00 MB-L3-01Mainboard Lantai 3 L3-AI-06 Analog Input 6 3.12 V
2692 06/09/2026 19:18:00 MB-L3-01Mainboard Lantai 3 L3-LUX-04 Illuminance / LUX 4 585.10 lux
2693 06/09/2026 19:18:00 MB-L3-01Mainboard Lantai 3 L3-LUX-01 Illuminance / LUX 1 503.40 lux
2694 06/09/2026 19:18:00 MB-L3-01Mainboard Lantai 3 L3-LUX-06 Illuminance / LUX 6 541.20 lux
2695 06/09/2026 19:18:00 MB-L3-01Mainboard Lantai 3 L3-RAD-02 Radiation 2 1.00 W/m²
2696 06/09/2026 19:18:00 MB-L3-01Mainboard Lantai 3 L3-SHT-02-RH SHT20 2 Humidity 43.80 %RH
2697 06/09/2026 19:18:00 MB-L3-01Mainboard Lantai 3 L3-LUX-05 Illuminance / LUX 5 390.00 lux
2698 06/09/2026 19:18:00 MB-L3-01Mainboard Lantai 3 L3-LUX-03 Illuminance / LUX 3 733.80 lux
2699 06/09/2026 19:18:00 MB-L3-01Mainboard Lantai 3 L3-AI-01 Analog Input 1 3.12 V
2700 06/09/2026 19:18:00 MB-L3-01Mainboard Lantai 3 L3-AI-03 Analog Input 3 3.12 V
Menampilkan maksimal 100 data per halaman